Weather History for Jackson, TN

Change the Weather History Date:

Friday, January 31, 2014

  Actual Average Record
Temperature  
Mean Temperature 46 °F 39 °F  
Max Temperature 55 °F 49 °F 76 °F (2002)
Min Temperature 37 °F 29 °F -3 °F (1966)
Degree Days  
Heating Degree Days 19 26  
Month to date heating degree days 995 832  
Since 1 July heating degree days 2552 2249  
Cooling Degree Days 0 0  
Month to date cooling degree days 0 0  
Year to date cooling degree days 0 0  
Moisture  
Dew Point 23 °F    
Average Humidity 51    
Maximum Humidity 76    
Minimum Humidity 25    
Precipitation  
Precipitation 0.00 in 0.15 in 2.35 in (1950)
Month to date precipitation 3.01 4.07  
Year to date precipitation 3.01 4.07  
Snow  
Snow 0.00 in - - ()
Month to date snowfall T  
Snow Depth 0.00 in    
Sea Level Pressure  
Sea Level Pressure 30.05 in    
Wind  
Wind Speed 8 mph (South)    
Max Wind Speed 17 mph    
Max Gust Speed 23 mph    
Visibility 10 miles    
Events      
T = Trace of Precipitation, MM = Missing Value Source: NWS Daily Summary

Daily Weather History Graph

Daily Weather History Graph

Search for Another Location

Airport:

Trip Planner

Search our weather history database for the weather conditions in past years. The results will help you decide how hot, cold, wet, or windy it might be!

Date:

Astronomy

Jan. 31, 2014 Rise Set
Actual Time 6:56 AM CST 5:22 PM CST
Civil Twilight 6:29 AM CST 5:49 PM CST
Nautical Twilight 5:58 AM CST 6:19 PM CST
Astronomical Twilight 5:28 AM CST 6:49 PM CST
Moon 7:09 AM CST (1/31) 6:41 PM CST (1/31)
Length of Visible Light 11h 19m
Length of Day
10h 26m
New Moon, 1% of the Moon is Illuminated
Jan 31
New Moon
Feb 6
First Quarter
Feb 14
Full
Feb 22
Last Quarter
Mar 1
New

Hourly Weather History & Observations

Time (CST) Temp. Windchill Dew Point Humidity Pressure Visibility Wind Dir Wind Speed Gust Speed Precip Events Conditions
12:53 AM 39.0 °F 31.0 °F 6.1 °F 26% 30.07 in 10.0 mi SSW 13.8 mph 23.0 mph N/A   Overcast
1:53 AM 37.9 °F 30.5 °F 7.0 °F 28% 30.07 in 10.0 mi South 11.5 mph - N/A   Overcast
2:53 AM 39.0 °F 32.8 °F 8.1 °F 28% 30.07 in 10.0 mi South 9.2 mph - N/A   Overcast
3:53 AM 39.0 °F 32.3 °F 9.0 °F 29% 30.07 in 10.0 mi South 10.4 mph - N/A   Overcast
4:53 AM 39.0 °F 33.4 °F 9.0 °F 29% 30.07 in 10.0 mi South 8.1 mph - N/A   Overcast
5:53 AM 39.9 °F 34.5 °F 10.0 °F 29% 30.08 in 10.0 mi South 8.1 mph - N/A   Overcast
6:53 AM 39.9 °F 35.8 °F 10.0 °F 29% 30.09 in 10.0 mi South 5.8 mph - N/A   Overcast
7:53 AM 39.9 °F 36.7 °F 12.9 °F 33% 30.11 in 10.0 mi South 4.6 mph - N/A   Overcast
8:53 AM 41.0 °F 36.4 °F 16.0 °F 36% 30.10 in 10.0 mi SSE 6.9 mph - N/A   Overcast
9:09 AM 41.0 °F 35.2 °F 17.6 °F 39% 30.11 in 10.0 mi SSE 9.2 mph - N/A   Overcast
9:23 AM 41.0 °F 35.8 °F 17.6 °F 39% 30.11 in 10.0 mi SSE 8.1 mph - N/A   Overcast
9:42 AM 41.0 °F 34.3 °F 19.4 °F 42% 30.12 in 10.0 mi SSE 11.5 mph 16.1 mph N/A   Overcast
9:53 AM 39.9 °F 33.9 °F 19.9 °F 45% 30.13 in 10.0 mi South 9.2 mph - N/A   Overcast
10:53 AM 39.9 °F 36.7 °F 28.0 °F 63% 30.14 in 10.0 mi South 4.6 mph - N/A   Overcast
11:53 AM 39.0 °F 35.7 °F 32.0 °F 76% 30.11 in 6.0 mi Variable 4.6 mph - N/A   Haze
12:53 PM 41.0 °F 37.1 °F 32.0 °F 70% 30.06 in 10.0 mi SSE 5.8 mph - N/A   Overcast
1:53 PM 46.9 °F - 27.0 °F 46% 30.03 in 10.0 mi SSE 9.2 mph - N/A   Overcast
2:53 PM 50.0 °F - 27.0 °F 41% 30.01 in 10.0 mi Variable 6.9 mph - N/A   Overcast
3:53 PM 51.1 °F - 28.0 °F 41% 30.00 in 10.0 mi SSE 3.5 mph - N/A   Overcast
4:53 PM 51.1 °F - 28.9 °F 43% 29.99 in 10.0 mi ESE 3.5 mph - N/A   Overcast
5:53 PM 51.1 °F - 32.0 °F 48% 29.99 in 10.0 mi Variable 3.5 mph - N/A   Overcast
6:53 PM 54.0 °F - 35.1 °F 49% 29.99 in 10.0 mi SSE 8.1 mph - N/A   Overcast
7:53 PM 54.0 °F - 36.0 °F 51% 29.99 in 10.0 mi South 6.9 mph - N/A   Overcast
8:53 PM 55.0 °F - 37.0 °F 51% 30.00 in 10.0 mi South 9.2 mph - N/A   Overcast
9:53 PM 55.0 °F - 36.0 °F 49% 29.99 in 10.0 mi South 11.5 mph - N/A   Overcast
10:53 PM 54.0 °F - 35.1 °F 49% 29.99 in 10.0 mi South 11.5 mph 17.3 mph N/A   Overcast
11:53 PM 53.1 °F - 34.0 °F 48% 29.99 in 10.0 mi South 10.4 mph 20.7 mph N/A   Overcast